Flag for Germany Weather past 2 weeks in Altenburg, Thuringia, Germany

Now
60 °F

Fog.


Feels Like: 60 °F
Forecast: 56 / 80 °F
Wind: 2 mph from South

Location: Gera-Leumnitz

Current Time: Aug 29, 2015 at 1:03:58 AM

Latest Report: Aug 28, 2015 at 11:00 PM


Visibility: 3 mi

Pressure: 30.17 "Hg

Humidity: 99%

Dew point: 59 °F

Location of AltenburgLocation

Historic Weather in Altenburg — Graph

°F

Altenburg temperature yesterday

Maximum temperature yesterday: 64 °F (at 8:00 AM)
Minimum temperature yesterday: 57 °F (at 9:00 AM)
Average temperature yesterday: 61 °F

Past Weeks' High & Low Weather Summary

 TemperatureHumidityPressure
High93 °F (Aug 14, 4:00 PM)100% (Aug 19, 7:00 AM)30.31 "Hg (Aug 19, 7:00 AM)
Low48 °F (Aug 22, 6:00 AM)30% (Aug 14, 4:00 PM)29.67 "Hg (Aug 14, 5:00 PM)
Average65 °F76%29.96 "Hg
* Reported Aug 13 11:00 PM — Aug 28 11:00 PM, Altenburg, Weather by CustomWeather, © 2015

Note: Actual official high and low records may vary slightly from our data, if they occured in-between our weather recording intervals... More about our weather records

Advertising

Altenburg weather history for previous 24 hours

 ConditionsComfort  
Time TempWeatherWind HumidityBarometerVisibility
11:00 PM
Fri, Aug 28
60 °FFog.2 mph99%30.17 "Hg3 mi
10:00 PM62 °FLight fog.2 mph97%30.16 "Hg6 mi
9:00 PM62 °FPassing clouds.2 mph96%30.14 "Hg12 mi
8:00 PM62 °FLow clouds.1 mph95%30.12 "Hg12 mi
7:00 PM63 °FLow clouds.2 mph91%30.11 "Hg11 mi
6:00 PM63 °FLow clouds.1 mph91%30.10 "Hg11 mi
5:00 PM62 °FLow clouds.1 mph93%30.10 "Hg8 mi
4:00 PM61 °FDrizzle. Low clouds.2 mph94%30.09 "Hg4 mi
3:00 PM60 °FDrizzle. Low clouds.2 mph96%30.09 "Hg2 mi
2:00 PM60 °FDrizzle. Low clouds.3 mph94%30.08 "Hg6 mi
1:00 PM59 °FLow clouds.2 mph94%30.07 "Hg9 mi
12:00 PM58 °FDrizzle. Low clouds.1 mph91%30.07 "Hg4 mi
11:00 AM58 °FLow clouds.2 mph91%30.05 "Hg15 mi
10:00 AM57 °FDrizzle. Low clouds.3 mph97%30.03 "Hg11 mi
9:00 AM57 °FRain. Low clouds.5 mph96%30.01 "Hg6 mi
8:00 AM64 °FLight rain. Overcast.3 mph94%29.94 "Hg22 mi
7:00 AM63 °FLight rain. Overcast.3 mph93%29.92 "Hg14 mi
6:00 AM62 °FLight rain. Low clouds.5 mph92%29.91 "Hg12 mi
5:00 AM62 °FDrizzle. Overcast.3 mph93%29.92 "Hg7 mi
4:00 AM62 °FLight rain. Low clouds.2 mph91%29.91 "Hg4 mi
3:00 AM63 °FLight rain. Overcast.3 mph87%29.89 "Hg12 mi
2:00 AM63 °FLight rain. Overcast.2 mph85%29.87 "Hg18 mi
Weather by CustomWeather, © 2015

See weather overviewHow to use our weather pages